Regional Weather Roundup
Issued by NWS

Home | Current Version | Previous Version | Graphics & Text | Print | Product List | Glossary Off
Versions: 1 2 3 4 5 6 7 8 9 10 11 12 13 14 15 16 17 18 19 20 21 22 23 24 25 26 27

000
ASUS45 KBOU 190507
RWRCO

WEATHER ROUNDUP FOR COLORADO
NATIONAL WEATHER SERVICE DENVER/BOULDER CO
1000 PM MST WED JAN 18 2017

NOTE: "FAIR" INDICATES FEW OR NO CLOUDS BELOW 12000 FEET WITH NO
SIGNIFICANT WEATHER AND/OR OBSTRUCTIONS TO VISIBILITY.

COZ001>005-013-030-031-190600-
...NORTHWEST COLORADO...

CITY           SKY/WX    TMP DP  RH WIND       PRES   REMARKS
CRAIG          FAIR       7   3  84 SE3       29.97F
HAYDEN         FAIR      10   5  79 E6        29.96F WCI   1
MEEKER         FAIR      15  13  91 CALM      29.96F
MOUNT WERNER   NOT AVBL
STEAMBOAT SPGS FAIR      11   8  88 CALM      29.97S
WALDEN           N/A     -2  -8  78 E8        29.92F WCI -17
$$

COZ006>008-011-190600-
...WEST CENTRAL VALLEYS...

CITY           SKY/WX    TMP DP  RH WIND       PRES   REMARKS
GRAND JUNCTION FAIR      30  28  92 E3        29.98F
MONTROSE       FAIR      28  24  85 S8        30.02S WCI  20
EAGLE          CLEAR     18  14  86 CALM      30.02R
RIFLE          FAIR      28  22  78 SE6       29.99F WCI  22
DELTA          FAIR      33  28  83 NE7       30.00S WCI  27
NUCLA          FAIR      32  27  80 E10       30.03F WCI  24
$$

COZ017>023-064>068-190600-
...SOUTHWEST COLORADO...

CITY           SKY/WX    TMP DP  RH WIND       PRES   REMARKS
DURANGO        FAIR      29  23  78 CALM      29.99F
CORTEZ         FAIR      27  26  96 NE5       30.00F WCI  22
PAGOSA SPRINGS CLOUDY    32  31  94 CALM      29.99F
TELLURIDE      FAIR      21  16  83 SE8       30.02S WCI  11
WOLF CREEK PAS CLOUDY    14  14 100 SW13G18   30.01S WCI   0
$$

COZ009-010-012-014-032>034-037-058>063-190600-
...CENTRAL COLORADO...

CITY           SKY/WX    TMP DP  RH WIND       PRES   REMARKS
ASPEN          FAIR      14   9  80 S6        29.97R WCI   5
BUENA VISTA    FAIR      10   6  85 SW3       29.88F
COPPER MTN     FAIR      23   9  54 W9        29.94S WCI  13
BERTHOUD PASS  NOT AVBL
COTTONWOOD PAS FAIR      32  12  43 W8        29.87F WCI  25
GUNNISON       FAIR      -1  -4  87 E5        30.04R WCI -11
KREMMLING      FAIR       7   1  78 CALM      30.01R
LEADVILLE      FAIR      14   7  73 NE6       29.90F WCI   5
MONARCH PASS   FOG       12  10  92 MISG      30.03F VSB 1/4
SALIDA         FAIR      26  19  77 CALM      29.94S
SUNLIGHT       FAIR      14  12  92 SW15      30.00S WCI  -1
WILKERSON PASS FAIR      28   3  34 NW8       29.90S WCI  20
$$

COZ069>075-190600-
...SAN LUIS VALLEY/SANGRE DE CRISTO MOUNTAINS...

CITY           SKY/WX    TMP DP  RH WIND       PRES   REMARKS
ALAMOSA        CLOUDY    24  22  91 CALM      29.97S
LA VETA PASS   LGT SNOW  19  16  86 NE38G48   29.85F WCI  -1
SAGUACHE       CLOUDY    21  19  93 E3        29.98S
$$

COZ035-036-038>040-190600-
...NORTHERN COLORADO FRONT RANGE...

CITY           SKY/WX    TMP DP  RH WIND       PRES   REMARKS
DENVER INTL AP FAIR      37  17  44 SW10      29.69F
DMNS CITY PARK   N/A     32  16  52 SE6G12    29.70S WCI  26
AURORA         PTCLDY    32  16  50 S10       29.70F WCI  24
FRONT RANGE AP NOT AVBL
ERIE MUNI ARPT FAIR      24  19  83 S5        29.70F WCI  18
BOULDER MUN AP FAIR      34  19  55 CALM      29.71R
CENTENNIAL     FAIR      31  12  45 S7        29.70F WCI  24
BROOMFIELD     CLEAR     41  12  30 CALM      29.71R
FORT COLLINS   FAIR      28  19  69 CALM      29.71F
LONGMONT       FAIR      27  20  75 W5        29.72F WCI  21
$$

COZ041-046-047-076>085-087-088-190600-
...PIKES PEAK/PALMER DIVIDE AND SOUTHERN FOOTHILLS...

CITY           SKY/WX    TMP DP  RH WIND       PRES   REMARKS
COLO. SPRINGS  FAIR      28  18  66 N5        29.73F WCI  23
A. F. ACADEMY  FAIR      26  12  56 N9        29.72F WCI  17
SCHRIEVER AFB  NOT AVBL
ELLICOTT       FAIR     N/A N/A N/A CALM      29.70F
FALCON         FAIR      36   2  23 N8        29.73F
FORT CARSON    NOT AVBL
LIMON          FAIR      19  16  88 NW5       29.70F WCI  12
MONUMENT HILL  FAIR      28  10  47 W5        29.75S WCI  23
TRINIDAD       FAIR      23  16  74 W10       29.73F WCI  12
$$

COZ042>045-048>051-090-091-190600-
...NORTHEAST COLORADO...

CITY           SKY/WX    TMP DP  RH WIND       PRES   REMARKS
GREELEY ARPT   FAIR      25  24  96 W6        29.70F WCI  18
AKRON          FAIR      29  17  61 W8        29.68F WCI  21
BURLINGTON     FAIR      30  27  88 SW8       29.71F WCI  22
WRAY           NOT AVBL
STERLING       FAIR      23  23 100 W8        29.68F WCI  14
HOLYOKE        FAIR      27  21  80 SW6       29.69F WCI  20
FORT MORGAN    FAIR      28  22  78 SW3       29.70S
$$

COZ086-089-092>099-190600-
...SOUTHEAST COLORADO...

CITY           SKY/WX    TMP DP  RH WIND       PRES   REMARKS
PUEBLO         FAIR      27  25  92 W6        29.71F WCI  20
LA JUNTA       FAIR      24  22  91 N6        29.71F FOG     WCI  17
LAMAR          FAIR      21  19  92 SW3       29.71F
SPRINGFIELD      N/A     26  25  96 CALM      29.70F
$$




USA.gov is the U.S. government's official web portal to all federal, state and local government web resources and services.